Regional Weather Roundup
Issued by NWS

Home | Current Version | Previous Version | Text Only | Print | Product List | Glossary Off
Versions: 1 2 3 4 5 6 7 8 9 10 11 12 13 14 15 16 17 18 19 20 21 22 23 24 25 26 27 28 29 30 31 32 33 34 35 36 37 38 39 40 41 42 43 44 45 46 47 48 49 50

000
ASUS43 KLOT 270412
RWRIL

ILLINOIS REGIONAL WEATHER ROUNDUP
NATIONAL WEATHER SERVICE CHICAGO/ROMEOVILLE IL
1000 PM CST SUN FEB 26 2017

NOTE: "FAIR" INDICATES FEW OR NO CLOUDS BELOW 12,000 FEET WITH NO
SIGNIFICANT WEATHER AND/OR OBSTRUCTIONS TO VISIBILITY.

* THESE STATIONS ARE NOT UNDER NWS QUALITY CONTROL. THEY ALSO MAY NOT
  REPORT WEATHER SUCH AS PRECIPITATION OR FOG.

ILZ001-002-007-009-015-016-024-270500-
NORTHWEST ILLINOIS

CITY           SKY/WX    TMP DP  RH WIND       PRES   REMARKS
MOLINE         FAIR      32  28  85 SW3       30.05R
STERLING*      FAIR      37  33  85 SW6       30.05R WCI  32
$$

ILZ003-004-008-010-011-017-018-270500-
NORTH CENTRAL ILLINOIS

CITY           SKY/WX    TMP DP  RH WIND       PRES   REMARKS
ROCKFORD       FAIR      37  29  72 SW5       30.05R WCI  33
FREEPORT*      FAIR      33  24  67 W3        30.04R
ROCHELLE*      CLOUDY    36  33  88 SW10      30.04S WCI  29
DE KALB*       CLOUDY    37  32  83 W10       30.04R WCI  30
PERU*          CLOUDY    40  25  56 SW16      30.06R
$$

ILZ005-006-012>014-019>023-270500-
NORTHEAST ILLINOIS

CITY           SKY/WX    TMP DP  RH WIND       PRES   REMARKS
CHICAGO-OHARE  FAIR      41  27  57 SW14      30.03R
CHICAGO-MIDWAY FAIR      40  24  53 SW10G20   30.05R
AURORA         FAIR      37  29  72 SW9       30.05R WCI  30
LANSING*       FAIR      33  27  77 SW7       30.08R WCI  27
JOLIET*        CLOUDY    40  27  60 SW7       30.07R
WAUKEGAN       MOCLDY    39  30  70 SW7       30.01R WCI  34
DUPAGE AIRPORT FAIR      38  28  67 SW13      30.03R WCI  30
KANKAKEE*      FAIR      32  25  77 SW9       30.10R WCI  24
WHEELING       FAIR      40  28  62 SW8       30.04R
MORRIS*        FAIR      37  26  65 SW9       30.06S WCI  30
ROMEOVILLE*    CLOUDY    39  30  70 SW12G21   30.06R WCI  31
NORTHERLY ISL    N/A     41  24  51 SW16        N/A
$$

LMZ740>746-270500-
SOUTHERN LAKE MICHIGAN

STATION/POSITION SKY/WX   TEMP    WIND        PRES    VSBY  WAVE
                          AIR SEA DIR/SP/G                  HT/PER
                          (F)     (DEG/KT/KT) (MB)    (MI)  (FT/S)
HARRISON CRIB              43     210/ 21/ 27   N/A
BURNHAM HARBOR             41     200/  9/ 16   N/A
CALUMET HARBOR             40     200/ 11/ 15 1017.2R
BURNS HARBOR               40     210/ 15/ 19 1018.6R
MICHIGAN CITY              40     180/ 17/ 20   N/A
$$

ILZ025>027-034>036-040-047-049-050-058-095>099-270500-
WEST-CENTRAL ILLINOIS

CITY           SKY/WX    TMP DP  RH WIND       PRES   REMARKS
QUINCY         FAIR      36  30  79 S9        30.08R WCI  29
GALESBURG*     CLOUDY    38  32  77 S6          N/A  WCI  34
MACOMB*        FAIR      37  25  61 SW12      30.09R WCI  30
JACKSONVILLE*  FAIR      37  29  74 S7        30.10R WCI  31
PITTSFIELD*    MOCLDY    38  32  80 S6        30.10S WCI  34
$$

ILZ028>032-037-038-041>044-048-051>054-059>061-270500-
CENTRAL ILLINOIS

CITY           SKY/WX    TMP DP  RH WIND       PRES   REMARKS
PONTIAC        FAIR      38  25  60 S13       30.10R WCI  30
BLOOMINGTON    FAIR      34  23  64 SW8       30.10R WCI  27
DECATUR        FAIR      36  24  62 SW8       30.11R WCI  30
PEORIA         FAIR      34  23  64 S7        30.09R WCI  28
LACON*         CLOUDY    39  26  59 SW5       30.08R
LINCOLN*       FAIR      35  26  70 SW5       30.10R WCI  31
SPRINGFIELD    FAIR      40  30  67 S14       30.10R
TAYLORVILLE    FAIR      35  27  71 S9        30.12S WCI  28
$$

ILZ033-039-045-046-055>057-062-063-270500-
EAST-CENTRAL ILLINOIS

CITY           SKY/WX    TMP DP  RH WIND       PRES   REMARKS
CHAMPAIGN      FAIR      30  19  63 S9        30.11S WCI  22
RANTOUL*       FAIR      37  24  59 S7        30.10S WCI  31
MATTOON        CLOUDY    42  29  59 SW6       30.12R
PARIS*         CLOUDY    38  27  62 SW10      30.14R WCI  32
$$

ILZ079-100>102-270500-
SOUTHWEST ILLINOIS

CITY           SKY/WX    TMP DP  RH WIND       PRES   REMARKS
ALTON          DRIZZLE   41  34  75 S12       30.14R
BELLEVILLE     CLOUDY    41  37  85 CALM      30.14S
CAHOKIA*       CLOUDY    42  33  70 CALM      30.14S
SPARTA*        CLOUDY    42  33  70 NW3       30.14F
$$

ILZ064>066-069>071-074>076-080>082-084>086-088>090-092>094-270500-
SOUTH-CENTRAL ILLINOIS

CITY           SKY/WX    TMP DP  RH WIND       PRES   REMARKS
CARBONDALE     CLOUDY    44  30  57 CALM      30.14R
CAIRO*         MOCLDY    46  31  56 SE3       30.15R
EFFINGHAM*     CLOUDY    43  32  65 S9        30.16R
MARION         CLOUDY    46  27  46 CALM      30.15S
MT. VERNON     CLOUDY    41  37  86 SW6       30.16R
CENTRALIA*     CLOUDY    43  35  72 SW9       30.15R
SALEM*         CLOUDY    43  35  74 SW8       30.15R
METROPOLIS*    CLOUDY    46  29  53 CALM      30.16R
$$

ILZ067-068-072-073-078-083-087-091-270500-
SOUTHEAST ILLINOIS

CITY           SKY/WX    TMP DP  RH WIND       PRES   REMARKS
LAWRENCEVILLE  CLOUDY    46  27  47 SW15      30.17R
FLORA*         CLOUDY    44  34  67 SW6       30.16R
FAIRFIELD*     CLOUDY    43  34  70 CALM      30.15S
HARRISBURG*    CLOUDY    45  32  59 CALM      30.15F
ROBINSON*      CLOUDY    43  28  56 SW9G16    30.16R
CARMI*         CLOUDY    43  35  73 CALM      30.16R
$$

ABBREVIATIONS USED IN REMARKS
   TC - TEMPERATURE IN CELSIUS
  WCI - WIND CHILL INDEX
   HX - HEAT INDEX
  VSB - VISIBILITY
$$





USA.gov is the U.S. government's official web portal to all federal, state and local government web resources and services.